FW5667 Weather Reports


time (UTC)temp
C
wind
direction
speed
KPH
gust
KPH
rain 1hr
cm
rain 24hr
cm
rain mn
cm
humidity
%
barometer
mb
20200531065527 10 0 0.0 0.0 0.03 0.84 0.84 95 1015.6
20200531065024 10 0 0.0 0.0 0.03 0.84 0.84 94 1015.6
20200531064605 10 0 0.0 0.0 0.00 0.81 0.81 95 1015.6
20200531064034 10 0 0.0 0.0 0.00 0.81 0.81 94 1015.7
20200531063525 10 0 0.0 0.0 0.00 0.81 0.81 94 1015.5
20200531063028 10 0 0.0 1.6 0.00 0.81 0.81 94 1015.7
20200531062525 10 0 0.0 1.6 0.00 0.81 0.81 94 1015.7
20200531062032 10 0 0.0 1.6 0.00 0.81 0.81 94 1015.8
20200531061550 10 275 0.0 3.2 0.00 0.81 0.81 94 1015.8
20200531061027 10 0 1.6 4.8 0.00 0.81 0.81 92 1015.8
20200531060524 10 0 0.0 4.8 0.00 0.81 0.81 92 1015.9
20200531060037 10 274 1.6 9.7 0.00 0.81 0.81 92 1015.8
20200531055533 10 232 3.2 9.7 0.00 0.81 0.81 93 1015.7
20200531055026 10 319 3.2 9.7 0.00 0.81 0.81 94 1015.6
20200531054612 10 229 0.0 0.0 0.03 0.81 0.81 95 1015.6
20200531054024 10 0 0.0 4.8 0.03 0.81 0.81 95 1015.5
20200531053532 10 0 0.0 4.8 0.03 0.81 0.81 95 1015.4
20200531053105 10 0 0.0 3.2 0.03 0.81 0.81 95 1015.5
20200531052527 10 0 0.0 3.2 0.03 0.81 0.81 95 1015.5
20200531052031 10 0 0.0 1.6 0.03 0.81 0.81 95 1015.3
20200531051541 10 0 0.0 1.6 0.03 0.81 0.81 95 1015.2
20200531051049 10 0 0.0 3.2 0.03 0.81 0.81 95 1015.2
20200531050542 10 0 0.0 3.2 0.03 0.81 0.81 95 1015.1
20200531050100 10 0 0.0 1.6 0.03 0.81 0.81 95 1015.0
20200531045524 10 0 0.0 0.0 0.03 0.81 0.81 94 1015.0
20200531045025 10 0 0.0 1.6 0.03 0.81 0.81 94 1015.0
20200531044609 10 0 0.0 1.6 0.00 0.79 0.79 94 1015.0
20200531044032 10 0 0.0 1.6 0.00 0.79 0.79 94 1015.1
20200531043525 10 0 0.0 0.0 0.00 0.79 0.79 94 1015.0
20200531043050 10 0 0.0 1.6 0.00 0.79 0.79 94 1015.1
20200531042531 10 0 0.0 1.6 0.00 0.79 0.79 94 1015.1
20200531042027 10 0 0.0 6.4 0.00 0.79 0.79 94 1015.1
20200531041554 10 0 0.0 6.4 0.00 0.79 0.79 93 1015.0
20200531041026 10 170 1.6 8.0 0.00 0.79 0.79 92 1015.0
20200531040529 10 0 0.0 8.0 0.00 0.79 0.79 92 1014.8
20200531040042 10 169 1.6 4.8 0.00 0.79 0.79 93 1014.8
20200531035523 10 237 1.6 4.8 0.00 0.79 0.79 93 1014.8
20200531035026 10 238 0.0 4.8 0.00 0.79 0.79 92 1014.7
20200531034606 10 238 1.6 4.8 0.00 0.79 0.79 91 1014.6
20200531034023 10 238 1.6 3.2 0.00 0.79 0.79 92 1014.5
20200531033526 11 0 0.0 4.8 0.00 0.79 0.79 91 1014.8
20200531033034 11 238 1.6 4.8 0.00 0.79 0.79 91 1014.9
20200531032525 10 0 0.0 4.8 0.00 0.79 0.79 91 1014.7
20200531032024 11 238 1.6 4.8 0.00 0.79 0.79 90 1014.4
20200531031554 11 0 0.0 3.2 0.00 0.79 0.79 91 1014.4
20200531031025 11 232 0.0 3.2 0.00 0.79 0.79 91 1014.6
20200531030525 11 232 0.0 4.8 0.00 0.79 0.79 91 1014.6
20200531030103 11 232 0.0 4.8 0.00 0.79 0.79 91 1014.6
20200531025525 11 232 0.0 6.4 0.00 0.79 0.79 91 1014.6
20200531025027 11 200 1.6 8.0 0.00 0.79 0.79 88 1014.6
20200531024535 11 0 0.0 9.7 0.00 0.79 0.79 90 1014.6
20200531024034 11 195 3.2 9.7 0.00 0.79 0.79 89 1014.6
20200531023527 11 196 0.0 4.8 0.00 0.79 0.79 90 1014.4
20200531023130 11 0 1.6 4.8 0.00 0.79 0.79 89 1014.3
20200531022524 11 186 1.6 4.8 0.00 0.79 0.79 90 1014.2
20200531022024 11 0 0.0 4.8 0.00 0.79 0.79 92 1014.1
20200531021526 11 183 0.0 4.8 0.00 0.79 0.79 92 1014.0
20200531021025 11 181 1.6 4.8 0.00 0.79 0.79 93 1013.9
20200531020530 11 0 0.0 3.2 0.00 0.79 0.79 92 1014.0
20200531020031 11 0 0.0 6.4 0.00 0.79 0.79 92 1013.9
20200531015523 11 150 1.6 6.4 0.00 0.79 0.79 91 1014.0
20200531015033 11 219 1.6 3.2 0.00 0.79 0.79 89 1013.8
20200531014634 11 0 0.0 3.2 0.00 0.79 0.79 87 1013.8
20200531014026 11 0 0.0 3.2 0.00 0.79 0.79 87 1013.6
20200531013532 11 0 0.0 1.6 0.00 0.79 0.79 90 1013.7
20200531013043 11 292 0.0 1.6 0.00 0.79 0.79 90 1013.7
20200531012524 11 0 0.0 0.0 0.00 0.79 0.79 90 1013.7
20200531012026 11 0 0.0 3.2 0.00 0.79 0.79 89 1013.6
20200531011544 11 0 0.0 4.8 0.00 0.79 0.79 90 1013.5
20200531011027 11 0 0.0 4.8 0.00 0.79 0.79 86 1013.6
20200531010523 11 317 1.6 8.0 0.00 0.79 0.79 86 1013.6
20200531010038 11 282 3.2 8.0 0.00 0.79 0.79 87 1013.3
20200531005534 11 253 0.0 3.2 0.00 0.79 0.79 89 1013.6
20200531005026 11 279 1.6 4.8 0.00 0.79 0.79 92 1013.6
20200531004543 11 0 0.0 4.8 0.00 0.79 0.79 91 1013.6
20200531004027 11 304 1.6 4.8 0.00 0.79 0.79 91 1013.5
20200531003526 11 286 1.6 6.4 0.03 0.79 0.79 91 1013.4
20200531003035 11 286 1.6 8.0 0.03 0.79 0.79 91 1013.3
20200531002522 11 277 1.6 9.7 0.05 0.79 0.79 90 1013.1
20200531002026 11 274 3.2 9.7 0.08 0.79 0.79 91 1013.3
20200531001546 11 220 1.6 9.7 0.13 0.79 0.79 91 1013.5
20200531001029 11 250 3.2 11.3 0.20 0.79 0.79 91 1013.4
20200531000527 11 211 3.2 12.9 0.28 0.79 0.79 90 1013.5
20200531000051 11 232 6.4 16.1 0.33 0.79 0.79 91 1013.3
20200530235523 11 262 6.4 16.1 0.36 0.79 0.79 91 1013.3
20200530235028 11 215 3.2 11.3 0.41 0.79 0.79 92 1013.0
20200530234608 11 205 0.0 12.9 0.43 0.79 0.79 93 1013.1
20200530234023 11 302 4.8 12.9 0.46 0.79 0.79 93 1013.4
20200530233523 11 201 1.6 17.7 0.46 0.76 0.76 93 1013.5
20200530233034 11 248 9.7 19.3 0.51 0.76 0.76 92 1013.3
20200530232529 11 242 8.0 19.3 0.53 0.74 0.74 91 1011.9
20200530232023 11 308 4.8 12.9 0.51 0.69 0.69 92 1012.4
20200530231556 11 302 3.2 11.3 0.51 0.66 0.66 91 1013.5
20200530231023 11 278 0.0 4.8 0.46 0.58 0.58 92 1013.9
20200530230524 11 227 0.0 6.4 0.38 0.48 0.48 91 1014.0
20200530230048 11 227 1.6 6.4 0.33 0.43 0.43 89 1014.0
20200530225524 11 243 1.6 6.4 0.30 0.41 0.41 89 1014.1
20200530225029 11 236 3.2 8.0 0.28 0.38 0.38 88 1014.1
20200530224540 11 223 3.2 8.0 0.25 0.36 0.36 87 1014.3
20200530224028 12 251 3.2 6.4 0.23 0.33 0.33 87 1014.1
20200530223523 12 194 1.6 4.8 0.20 0.30 0.30 87 1014.4
20200530223131 12 180 1.6 6.4 0.18 0.25 0.25 87 1014.5
20200530222523 12 209 1.6 9.7 0.15 0.20 0.20 86 1013.9
20200530222024 12 269 1.6 9.7 0.13 0.18 0.18 86 1013.6
20200530221554 12 273 3.2 12.9 0.10 0.15 0.15 81 1013.3
20200530221035 12 258 3.2 12.9 0.10 0.13 0.13 79 1013.3
20200530220523 12 242 3.2 12.9 0.08 0.10 0.10 78 1013.1
20200530220057 12 200 6.4 16.1 0.08 0.10 0.10 78 1012.8
20200530215523 12 259 9.7 16.1 0.08 0.10 0.10 78 1012.7
20200530215046 13 261 8.0 16.1 0.08 0.10 0.10 77 1012.6
20200530214549 13 227 6.4 12.9 0.08 0.10 0.10 80 1012.4
20200530214023 13 171 3.2 14.5 0.08 0.10 0.10 80 1012.4
20200530213524 13 252 6.4 14.5 0.08 0.10 0.10 78 1011.9
20200530213037 14 197 3.2 12.9 0.05 0.08 0.08 77 1011.5
20200530212524 13 228 6.4 16.1 0.03 0.05 0.05 76 1011.0
20200530212024 13 214 3.2 16.1 0.03 0.05 0.05 77 1011.1
20200530211542 14 242 6.4 16.1 0.03 0.05 0.05 72 1010.6
20200530211023 14 236 4.8 12.9 0.00 0.03 0.03 67 1010.7
20200530210531 15 225 4.8 12.9 0.00 0.03 0.03 65 1011.0
20200530210041 15 245 3.2 11.3 0.00 0.03 0.03 62 1010.8
20200530205523 15 227 1.6 14.5 0.00 0.03 0.03 60 1010.6
20200530205023 15 268 4.8 14.5 0.00 0.03 0.03 61 1010.8
20200530204640 15 257 4.8 14.5 0.00 0.03 0.03 60 1010.4
20200530204023 15 303 4.8 14.5 0.00 0.03 0.03 62 1010.3
20200530203530 15 205 8.0 14.5 0.00 0.03 0.03 60 1010.3
20200530203026 15 284 3.2 14.5 0.00 0.03 0.03 62 1010.3
20200530202524 15 246 1.6 17.7 0.00 0.03 0.03 62 1010.3
20200530202024 15 305 6.4 19.3 0.00 0.03 0.03 61 1010.3
20200530201530 15 252 9.7 19.3 0.00 0.03 0.03 60 1010.2
20200530201030 15 229 8.0 19.3 0.00 0.03 0.03 58 1010.2
20200530200523 15 251 3.2 12.9 0.00 0.03 0.03 59 1010.1
20200530200121 15 170 4.8 20.9 0.00 0.03 0.03 63 1010.1
20200530195523 15 0 6.4 20.9 0.00 0.03 0.03 64 1010.2
20200530195023 15 302 6.4 19.3 0.00 0.03 0.03 64 1010.2
20200530194552 15 244 9.7 19.3 0.00 0.03 0.03 63 1010.2
20200530194039 15 216 8.0 19.3 0.00 0.03 0.03 62 1010.1
20200530193523 16 242 8.0 16.1 0.00 0.03 0.03 60 1010.1
20200530193101 16 211 4.8 14.5 0.00 0.03 0.03 60 1010.1
20200530192527 16 190 6.4 14.5 0.00 0.03 0.03 60 1010.1
20200530192034 16 224 6.4 16.1 0.00 0.03 0.03 61 1010.1
20200530191535 16 144 4.8 17.7 0.00 0.03 0.03 61 1010.1
20200530191022 16 270 4.8 20.9 0.00 0.03 0.03 61 1010.2
20200530190526 16 257 6.4 22.5 0.00 0.03 0.03 63 1010.4
20200530190111 16 277 9.7 22.5 0.00 0.03 0.03 61 1010.4
20200530185522 16 207 6.4 17.7 0.00 0.03 0.03 63 1010.0
20200530185023 15 289 6.4 17.7 0.00 0.03 0.03 64 1010.1
20200530184531 15 217 4.8 20.9 0.00 0.03 0.03 68 1009.9
20200530184023 15 254 12.9 20.9 0.00 0.03 0.03 68 1009.8
20200530183523 15 269 8.0 24.1 0.00 0.03 0.03 66 1009.9
20200530183034 15 249 6.4 24.1 0.00 0.03 0.03 66 1009.9
20200530182523 15 211 6.4 19.3 0.00 0.03 0.03 67 1009.8
20200530182023 15 188 8.0 16.1 0.00 0.03 0.03 67 1009.7
20200530181550 15 239 8.0 19.3 0.00 0.03 0.03 67 1009.8
20200530181029 15 194 4.8 19.3 0.00 0.03 0.03 73 1009.8
20200530180525 15 193 8.0 17.7 0.00 0.03 0.03 71 1009.9
20200530180055 15 269 6.4 16.1 0.00 0.03 0.03 75 1009.6
20200530175544 15 178 4.8 14.5 0.00 0.03 0.03 78 1009.6
20200530175023 14 186 6.4 14.5 0.00 0.03 0.03 77 1009.7
20200530174546 13 185 4.8 11.3 0.00 0.03 0.03 79 1009.7
20200530174023 13 213 3.2 14.5 0.00 0.03 0.03 79 1009.6
20200530173523 13 250 6.4 14.5 0.00 0.03 0.03 79 1009.6
20200530173027 12 251 8.0 14.5 0.00 0.03 0.03 80 1009.4
20200530172529 13 269 6.4 14.5 0.00 0.03 0.03 78 1009.3
20200530172022 13 319 3.2 12.9 0.00 0.03 0.03 78 1009.3
20200530171557 13 291 4.8 12.9 0.00 0.03 0.03 76 1009.5
20200530171039 13 360 4.8 14.5 0.00 0.03 0.03 79 1009.3
20200530170525 13 298 6.4 14.5 0.00 0.03 0.03 77 1009.3
20200530170029 13 228 6.4 11.3 0.00 0.03 0.03 77 1009.2
20200530165524 13 240 4.8 11.3 0.00 0.03 0.03 76 1009.0
20200530165030 13 254 1.6 11.3 0.00 0.03 0.03 75 1008.9
20200530164545 13 0 1.6 11.3 0.00 0.03 0.03 79 1008.8
20200530164031 13 0 0.0 9.7 0.00 0.03 0.03 77 1008.8
20200530163523 13 9 4.8 9.7 0.00 0.03 0.03 77 1008.8
20200530163035 13 11 3.2 9.7 0.00 0.03 0.03 76 1008.9
20200530162530 13 360 0.0 6.4 0.00 0.03 0.03 84 1008.9
20200530162023 13 51 1.6 4.8 0.00 0.03 0.03 85 1008.9
20200530161526 12 0 0.0 4.8 0.00 0.03 0.03 85 1008.8
20200530161024 12 94 0.0 6.4 0.00 0.03 0.03 87 1009.0
20200530160528 12 297 1.6 6.4 0.00 0.03 0.03 83 1008.8
20200530160032 12 281 1.6 6.4 0.03 0.03 0.03 84 1008.8
20200530155526 12 341 3.2 8.0 0.03 0.03 0.03 82 1008.8
20200530155025 12 0 0.0 11.3 0.03 0.03 0.03 84 1008.8
20200530154539 12 254 4.8 12.9 0.03 0.03 0.03 84 1008.9
20200530154032 13 267 6.4 12.9 0.03 0.03 0.03 83 1009.1
20200530153541 12 208 1.6 6.4 0.03 0.03 0.03 85 1009.5
20200530153055 12 269 3.2 6.4 0.03 0.03 0.03 83 1009.4
20200530152525 12 57 1.6 6.4 0.03 0.03 0.03 87 1009.5
20200530152033 12 105 0.0 12.9 0.03 0.03 0.03 87 1009.8
20200530151607 11 39 3.2 16.1 0.03 0.03 0.03 88 1009.6
20200530151029 11 15 8.0 16.1 0.03 0.03 0.03 87 1009.0
20200530150530 11 344 8.0 16.1 0.03 0.03 0.03 87 1009.0
20200530150036 11 340 8.0 14.5 0.00 0.00 0.00 86 1009.1
20200530145524 11 0 0.0 11.3 0.00 0.00 0.00 87 1010.1
20200530145029 11 113 1.6 12.9 0.00 0.00 0.00 86 1010.4
20200530144538 11 96 3.2 12.9 0.00 0.00 0.00 86 1010.2
20200530144035 11 0 1.6 11.3 0.00 0.00 0.00 85 1009.8
20200530143527 11 148 3.2 11.3 0.00 0.00 0.00 84 1009.5
20200530143024 11 140 3.2 9.7 0.00 0.00 0.00 84 1009.1
20200530142523 11 121 3.2 16.1 0.00 0.00 0.00 84 1008.8
20200530142022 11 0 6.4 25.7 0.00 0.00 0.00 81 1008.7
20200530141535 11 216 11.3 25.7 0.00 0.00 0.00 80 1008.4
20200530141025 11 327 9.7 27.4 0.00 0.00 0.00 80 1008.8
20200530140526 11 355 11.3 27.4 0.00 0.00 0.00 79 1009.0
20200530140029 11 341 9.7 17.7 0.00 0.00 0.00 78 1009.5
20200530135524 11 28 1.6 3.2 0.00 0.00 0.00 82 1010.0
20200530135052 12 0 0.0 3.2 0.00 0.00 0.00 79 1010.4
20200530134525 12 145 0.0 3.2 0.00 0.00 0.00 74 1010.0
20200530134025 12 145 0.0 3.2 0.00 0.00 0.00 74 1010.1
20200530133545 12 0 0.0 3.2 0.00 0.00 0.00 74 1010.4
20200530133052 12 0 0.0 4.8 0.00 0.00 0.00 74 1010.6
20200530132524 12 144 0.0 4.8 0.00 0.00 0.00 75 1011.1
20200530132023 12 181 0.0 11.3 0.00 0.00 0.00 74 1011.0
20200530131557 12 0 3.2 12.9 0.00 0.00 0.00 76 1011.3
20200530131023 12 179 3.2 12.9 0.00 0.00 0.00 79 1011.5
20200530130543 12 110 1.6 8.0 0.00 0.00 0.00 80 1011.4
20200530130026 12 138 3.2 6.4 0.00 0.00 0.00 80 1010.9
20200530125525 11 352 1.6 3.2 0.00 0.00 0.00 79 1010.4
20200530125024 11 352 0.0 3.2 0.00 0.00 0.00 79 1009.9
20200530124551 11 0 0.0 1.6 0.00 0.00 0.00 80 1009.3
20200530124022 11 355 0.0 1.6 0.00 0.00 0.00 78 1009.3
20200530123534 11 0 0.0 3.2 0.00 0.00 0.00 77 1009.1
20200530123048 12 0 0.0 3.2 0.00 0.00 0.00 75 1009.2
20200530122529 11 0 0.0 3.2 0.00 0.00 0.00 77 1009.4
20200530122038 11 0 0.0 3.2 0.00 0.00 0.00 78 1009.5
20200530121540 12 0 1.6 4.8 0.00 0.00 0.00 76 1009.4
20200530121024 12 0 0.0 4.8 0.00 0.00 0.00 75 1009.1
20200530120533 12 355 3.2 8.0 0.00 0.00 0.00 73 1009.2
20200530120105 12 355 3.2 8.0 0.00 0.00 0.00 73 1009.3
20200530115523 12 9 3.2 12.9 0.00 0.00 0.00 72 1009.4
20200530115024 12 345 4.8 12.9 0.00 0.00 0.00 72 1009.3
20200530114547 12 34 3.2 9.7 0.00 0.00 0.00 72 1009.2
20200530114023 12 0 3.2 11.3 0.00 0.00 0.00 70 1009.3
20200530113532 12 333 3.2 11.3 0.00 0.00 0.00 70 1009.2
20200530113027 12 34 1.6 6.4 0.00 0.00 0.00 74 1009.2
20200530112527 12 0 1.6 6.4 0.00 0.00 0.00 71 1009.1
20200530112023 13 286 1.6 6.4 0.00 0.00 0.00 67 1009.2
20200530111554 13 286 1.6 6.4 0.00 0.00 0.00 67 1009.2
20200530111026 12 293 0.0 4.8 0.00 0.00 0.00 69 1009.1
20200530110525 13 319 1.6 6.4 0.00 0.00 0.00 73 1009.1
20200530110029 13 355 0.0 8.0 0.00 0.00 0.00 69 1009.2
20200530105526 13 9 0.0 8.0 0.00 0.00 0.00 68 1009.2
20200530105025 13 56 3.2 6.4 0.00 0.00 0.00 66 1008.9
20200530104536 13 0 0.0 3.2 0.00 0.00 0.00 65 1008.9
20200530104035 13 65 1.6 6.4 0.00 0.00 0.00 65 1008.9
20200530103526 13 0 0.0 12.9 0.00 0.00 0.00 64 1008.8
20200530103042 13 254 1.6 12.9 0.00 0.00 0.00 64 1008.7
20200530102547 13 292 1.6 11.3 0.00 0.00 0.00 64 1008.7
20200530102025 14 310 4.8 11.3 0.00 0.00 0.00 64 1008.8
20200530101544 14 261 1.6 12.9 0.00 0.00 0.00 64 1008.9
20200530101025 14 335 3.2 12.9 0.00 0.00 0.00 64 1008.8
20200530100529 14 355 3.2 9.7 0.00 0.00 0.00 64 1008.9
20200530100056 14 184 3.2 12.9 0.00 0.00 0.00 64 1009.5
20200530095525 14 254 3.2 12.9 0.00 0.00 0.00 63 1009.1
20200530095026 14 350 4.8 12.9 0.00 0.00 0.00 63 1008.6
20200530094557 14 243 4.8 9.7 0.00 0.00 0.00 62 1009.1
20200530094032 14 192 1.6 11.3 0.00 0.00 0.00 62 1009.2
20200530093536 14 233 3.2 11.3 0.00 0.00 0.00 62 1008.7
20200530093046 14 340 1.6 11.3 0.00 0.00 0.00 62 1008.8
20200530092525 14 311 1.6 12.9 0.00 0.00 0.00 62 1009.0
20200530092041 15 282 4.8 12.9 0.00 0.00 0.00 61 1009.0
20200530091542 15 238 3.2 8.0 0.00 0.00 0.00 61 1009.2
20200530091025 15 282 1.6 8.0 0.00 0.00 0.00 62 1009.1
20200530090525 15 289 3.2 8.0 0.00 0.00 0.00 62 1009.0
20200530090042 15 246 1.6 9.7 0.00 0.00 0.00 61 1008.9
20200530085526 15 283 4.8 9.7 0.00 0.00 0.00 61 1009.1
20200530085026 15 251 3.2 11.3 0.00 0.00 0.00 61 1009.1
20200530084605 15 282 3.2 11.3 0.00 0.00 0.00 61 1009.0
20200530084026 15 241 1.6 8.0 0.00 0.00 0.00 62 1009.0
20200530083528 15 302 1.6 6.4 0.00 0.00 0.00 62 1009.0
20200530083108 14 267 3.2 6.4 0.00 0.00 0.00 62 1009.1
20200530082529 14 0 1.6 4.8 0.00 0.00 0.00 65 1009.0
20200530082030 14 207 0.0 3.2 0.00 0.00 0.00 65 1009.1
20200530081812 14 207 0.0 3.2 0.00 0.00 0.00 65 1009.1
20200530081026 14 207 0.0 4.8 0.00 0.00 0.00 64 1009.2
20200530080525 15 207 0.0 9.7 0.00 0.00 0.00 61 1009.2
20200530080041 15 0 3.2 9.7 0.00 0.00 0.00 59 1009.3
20200530075525 15 291 3.2 8.0 0.00 0.00 0.00 60 1009.1
20200530075025 15 236 3.2 8.0 0.00 0.00 0.00 59 1009.1
20200530074550 15 250 3.2 8.0 0.00 0.00 0.00 60 1009.0
20200530074026 15 236 1.6 4.8 0.00 0.00 0.00 63 1009.1
20200530073525 15 0 0.0 6.4 0.00 0.00 0.00 64 1009.4
20200530073052 15 0 1.6 6.4 0.00 0.00 0.00 61 1009.5
20200530072528 15 0 0.0 8.0 0.00 0.00 0.00 61 1009.4
20200530072026 16 266 3.2 8.0 0.00 0.00 0.00 58 1009.3
20200530071534 16 346 0.0 11.3 0.00 0.00 0.00 59 1009.6
20200530071026 16 279 3.2 11.3 0.00 0.00 0.00 58 1009.6
20200530070525 16 263 3.2 9.7 0.00 0.00 0.00 57 1009.6
20200530070148 16 333 1.6 11.3 0.00 0.00 0.00 59 1009.6